Location: D�rnast
(49.6426°N, 11.9755°E)
Time: 13:28:25
(UTC+00:00)

Iridium 4 Rocket - Pass Details

Date: 24 January 2021
Orbit: 583 x 906 km, 86.9° (Epoch: 27 February)

Event Time Altitude Azimuth Distance (km) Brightness Sun altitude
Rises 17:24:48 0° 359° (N) 3,472 6.8 -14.5°
Reaches altitude 10° 17:27:23 10° 5° (N) 2,494 6.0 -14.9°
Maximum altitude 17:32:52 52° 81° (E) 1,000 3.7 -15.7°
Drops below altitude 10° 17:37:53 10° 158° (SSE) 2,281 5.8 -16.5°
Sets 17:40:09 0° 163° (SSE) 3,150 6.6 -16.9°
